Cortez, CO

6:33 PM MST on December 11, 2017 (GMT -0700)
Cortez Municipal

Weather History for KCEZ - January, 2014

Change the Weather History Date:

Tuesday, January 14, 2014

  Actual Average Record
Temperature  
Mean Temperature 32 °F 28 °F  
Max Temperature 51 °F 41 °F 55 °F (2006)
Min Temperature 12 °F 15 °F -12 °F (2013)
Degree Days  
Heating Degree Days 33 37  
Month to date heating degree days 516 527  
Since 1 July heating degree days 3195 3185  
Cooling Degree Days 0 0  
Month to date cooling degree days 0 0  
Year to date cooling degree days 0 0  
Moisture  
Dew Point 12 °F    
Average Humidity 56    
Maximum Humidity 92    
Minimum Humidity 19    
Precipitation  
Precipitation 0.00 in 0.03 in 0.21 in (2017)
Month to date precipitation T 0.47  
Year to date precipitation T 0.47  
Sea Level Pressure  
Sea Level Pressure 30.46 in    
Wind  
Wind Speed 10 mph (NE)    
Max Wind Speed 21 mph    
Max Gust Speed 29 mph    
Visibility 10 miles    
Events      
T = Trace of Precipitation, MM = Missing Value Source: NWS Daily Summary

Daily Weather History Graph

Daily Weather History Graph

Search for Another Location

Airport or City:

Trip Planner

Search our weather history database for the weather conditions in past years. The results will help you decide how hot, cold, wet, or windy it might be!

Date:

Astronomy

Jan. 14, 2014 Rise Set
Actual Time 7:27 AM MST 5:19 PM MST
Civil Twilight 6:59 AM MST 5:48 PM MST
Nautical Twilight 6:27 AM MST 6:20 PM MST
Astronomical Twilight 5:55 AM MST 6:51 PM MST
Moon 4:27 PM MST (1/14) 6:05 AM MST (1/14)
Length of Visible Light 10h 49m
Length of Day
9h 51m
Waxing Gibbous, 98% of the Moon is Illuminated
Jan 14
Waxing Gibbous
Jan 15
Full
Jan 23
Last Quarter
Jan 30
New
Feb 6
First Quarter

Hourly Weather History & Observations

Time (MST) Temp. Windchill Dew Point Humidity Pressure Visibility Wind Dir Wind Speed Gust Speed Precip Events Conditions
12:53 AM 15.1 °F 3.3 °F 10.9 °F 84% 30.38 in 10.0 mi ENE 9.2 mph - N/A   Clear
1:53 AM 16.0 °F - 12.0 °F 84% 30.37 in 10.0 mi North - - N/A   Clear
2:53 AM 15.1 °F 2.5 °F 10.9 °F 84% 30.40 in 10.0 mi ENE 10.4 mph - N/A   Clear
3:53 AM 16.0 °F 2.3 °F 10.9 °F 81% 30.39 in 10.0 mi ENE 12.7 mph - N/A   Clear
4:53 AM 14.0 °F 0.5 °F 10.0 °F 84% 30.43 in 10.0 mi NE 11.5 mph - N/A   Clear
5:53 AM 12.9 °F 0.7 °F 10.0 °F 88% 30.44 in 10.0 mi ENE 9.2 mph - N/A   Clear
6:53 AM 12.9 °F -0.2 °F 10.0 °F 88% 30.48 in 10.0 mi ENE 10.4 mph - N/A   Clear
7:53 AM 12.9 °F 2.6 °F 9.0 °F 84% 30.54 in 10.0 mi ENE 6.9 mph - N/A   Clear
8:53 AM 25.0 °F 19.3 °F 17.1 °F 72% 30.53 in 10.0 mi ENE 4.6 mph - N/A   Clear
9:53 AM 37.0 °F 34.5 °F 19.0 °F 48% 30.51 in 10.0 mi ENE 3.5 mph - N/A   Clear
10:53 AM 45.0 °F 39.7 °F 17.1 °F 33% 30.48 in 10.0 mi North 10.4 mph - N/A   Clear
11:53 AM 48.0 °F - 14.0 °F 26% 30.45 in 10.0 mi NNW 13.8 mph - N/A   Clear
12:53 PM 50.0 °F - 12.0 °F 22% 30.41 in 10.0 mi North 16.1 mph 26.5 mph N/A   Clear
1:53 PM 51.1 °F - 10.9 °F 20% 30.39 in 10.0 mi North 17.3 mph 25.3 mph N/A   Clear
2:53 PM 50.0 °F - 10.0 °F 20% 30.40 in 10.0 mi NNE 18.4 mph 25.3 mph N/A   Clear
3:53 PM 48.0 °F - 10.0 °F 22% 30.41 in 10.0 mi North 17.3 mph 25.3 mph N/A   Clear
4:53 PM 45.0 °F - 12.0 °F 26% 30.44 in 10.0 mi North - - N/A   Clear
5:53 PM 39.0 °F 33.4 °F 14.0 °F 36% 30.50 in 10.0 mi NW 8.1 mph - N/A   Clear
6:53 PM 36.0 °F 30.3 °F 15.1 °F 43% 30.52 in 10.0 mi NW 6.9 mph - N/A   Clear
7:53 PM 28.0 °F 22.8 °F 12.9 °F 53% 30.55 in 10.0 mi East 4.6 mph - N/A   Clear
8:53 PM 25.0 °F 17.1 °F 12.9 °F 60% 30.53 in 10.0 mi East 6.9 mph - N/A   Clear
9:53 PM 21.9 °F 15.7 °F 12.0 °F 66% 30.48 in 10.0 mi East 4.6 mph - N/A   Clear
10:53 PM 21.0 °F 10.6 °F 12.9 °F 71% 30.47 in 10.0 mi NE 9.2 mph - N/A   Clear
11:53 PM 21.9 °F 13.4 °F 12.9 °F 68% 30.45 in 10.0 mi NE 6.9 mph - N/A   Clear